EA7CL-13 Weather Reports


time (UTC)temp
C
wind
direction
speed
KPH
gust
KPH
rain 1hr
cm
rain 24hr
cm
rain mn
cm
humidity
%
barometer
mb
20260508100216 17 158 9.7 19.3 0.00 0.00 0.00 80 1014.5
20260508095217 17 113 8.0 14.5 0.00 0.00 0.00 80 1014.3
20260508094219 17 135 8.0 19.3 0.00 0.00 0.00 79 1014.3
20260508093217 18 90 6.4 16.1 0.00 0.00 0.00 77 1014.3
20260508092217 18 135 8.0 17.7 0.00 0.00 0.00 75 1014.2
20260508091237 18 113 12.9 19.3 0.00 0.00 0.00 73 1014.2
20260508090217 18 90 12.9 24.1 0.00 0.00 0.00 74 1014.2
20260508085218 18 90 9.7 19.3 0.00 0.00 0.00 73 1014.0
20260508084237 18 113 11.3 22.5 0.00 0.00 0.00 73 1014.0
20260508083217 18 113 4.8 12.9 0.00 0.00 0.00 74 1014.0
20260508082217 18 90 9.7 16.1 0.00 0.00 0.00 72 1013.9
20260508081217 18 135 9.7 19.3 0.00 0.00 0.00 72 1013.9
20260508080217 18 135 8.0 12.9 0.00 0.00 0.00 73 1013.7
20260508075217 18 90 8.0 22.5 0.00 0.00 0.00 72 1013.6
20260508074218 18 113 6.4 14.5 0.00 0.00 0.00 71 1013.7
20260508073217 18 113 14.5 20.9 0.00 0.00 0.00 70 1013.6
20260508072218 18 113 3.2 9.7 0.00 0.00 0.00 70 1013.7
20260508071218 18 113 8.0 12.9 0.00 0.00 0.00 69 1013.9
20260508070217 17 113 4.8 8.0 0.00 0.00 0.00 69 1014.0
20260508065237 17 0.0 1.6 0.00 0.00 0.00 68 1013.8
20260508064218 17 68 9.7 14.5 0.00 0.00 0.00 68 1013.6
20260508063217 17 68 8.0 12.9 0.00 0.00 0.00 68 1013.5
20260508062218 16 90 9.7 16.1 0.00 0.00 0.00 69 1013.3
20260508061217 16 90 4.8 9.7 0.00 0.00 0.00 70 1013.4
20260508060217 16 45 1.6 4.8 0.00 0.00 0.00 70 1013.1
20260508055217 16 0.0 0.0 0.00 0.00 0.00 70 1013.1
20260508054216 16 0.0 1.6 0.00 0.00 0.00 70 1012.9
20260508053217 16 45 3.2 4.8 0.00 0.00 0.00 71 1012.6
20260508052217 16 90 3.2 4.8 0.00 0.00 0.00 71 1012.5
20260508051217 16 68 3.2 6.4 0.00 0.00 0.00 72 1012.6
20260508050218 16 68 6.4 6.4 0.00 0.00 0.00 72 1012.7
20260508045216 16 45 1.6 4.8 0.00 0.00 0.00 73 1012.7
20260508044217 16 45 4.8 4.8 0.00 0.00 0.00 73 1012.5
20260508043258 16 0.0 1.6 0.00 0.00 0.00 73 1012.8
20260508042217 16 90 6.4 9.7 0.00 0.00 0.00 73 1012.4
20260508041216 16 68 11.3 14.5 0.00 0.00 0.00 74 1012.7
20260508040216 16 68 4.8 8.0 0.00 0.00 0.00 74 1012.9
20260508035216 16 68 3.2 4.8 0.00 0.00 0.00 74 1013.0
20260508034216 16 68 4.8 8.0 0.00 0.00 0.00 74 1013.0
20260508033216 16 90 4.8 12.9 0.00 0.00 0.00 74 1012.9
20260508032216 16 68 4.8 8.0 0.00 0.00 0.00 74 1012.8
20260508031216 16 68 8.0 9.7 0.00 0.00 0.00 74 1012.8
20260508030218 16 68 6.4 11.3 0.00 0.00 0.00 74 1012.7
20260508025217 16 90 11.3 16.1 0.00 0.00 0.00 74 1012.8
20260508024219 16 90 6.4 20.9 0.00 0.00 0.00 74 1012.8
20260508023216 16 90 11.3 17.7 0.00 0.00 0.00 74 1012.9
20260508022236 16 90 8.0 14.5 0.00 0.00 0.00 74 1012.9
20260508021216 16 90 8.0 12.9 0.00 0.00 0.00 74 1012.9
20260508020216 16 135 6.4 11.3 0.00 0.00 0.00 73 1012.8
20260508015216 16 135 8.0 16.1 0.00 0.00 0.00 71 1012.7
20260508014217 16 90 1.6 3.2 0.00 0.00 0.00 71 1012.6
20260508013216 16 113 3.2 4.8 0.00 0.00 0.00 72 1012.5
20260508012216 16 90 8.0 12.9 0.00 0.00 0.00 74 1012.6
20260508011216 17 113 6.4 16.1 0.00 0.00 0.00 74 1012.9
20260508010216 17 135 3.2 8.0 0.00 0.00 0.00 73 1013.0
20260508005217 16 113 4.8 8.0 0.00 0.00 0.00 70 1012.9
20260508004216 16 113 1.6 3.2 0.00 0.00 0.00 68 1013.0
20260508003216 16 90 8.0 11.3 0.00 0.00 0.00 69 1012.9
20260508002216 16 68 3.2 4.8 0.00 0.00 0.00 70 1012.9
20260508001216 16 45 1.6 3.2 0.00 0.00 0.00 71 1013.1
20260508000219 16 90 4.8 8.0 0.00 0.00 0.00 72 1013.4
20260507235237 16 90 8.0 11.3 0.00 0.00 0.00 73 1013.5
20260507234216 17 45 6.4 11.3 0.00 0.00 0.00 73 1013.6
20260507233216 17 68 9.7 12.9 0.00 0.00 0.00 74 1013.7
20260507232216 17 45 3.2 6.4 0.00 0.00 0.00 73 1013.7
20260507231216 17 68 8.0 12.9 0.00 0.00 0.00 73 1013.7
20260507230217 17 68 11.3 17.7 0.00 0.00 0.00 72 1013.9
20260507225216 17 68 8.0 11.3 0.00 0.00 0.00 73 1013.9
20260507224216 17 68 4.8 12.9 0.00 0.00 0.00 72 1014.0
20260507223217 17 113 6.4 12.9 0.00 0.00 0.00 70 1013.9
20260507222215 17 90 4.8 8.0 0.00 0.00 0.00 67 1013.9
20260507221256 17 113 4.8 11.3 0.00 0.00 0.00 66 1013.9
20260507220215 17 90 8.0 16.1 0.00 0.00 0.00 64 1013.9
20260507215218 17 113 8.0 14.5 0.00 0.00 0.00 63 1013.7
20260507214217 17 113 3.2 6.4 0.00 0.00 0.00 60 1013.4
20260507213217 17 68 6.4 8.0 0.00 0.00 0.00 57 1013.5
20260507212217 17 45 6.4 8.0 0.00 0.00 0.00 57 1013.4
20260507211217 17 90 6.4 9.7 0.00 0.00 0.00 59 1013.2
20260507210217 18 68 8.0 11.3 0.00 0.00 0.00 65 1013.1
20260507205217 17 90 4.8 6.4 0.00 0.00 0.00 67 1013.2
20260507204217 17 90 3.2 6.4 0.00 0.00 0.00 66 1013.1
20260507203217 18 90 4.8 6.4 0.00 0.00 0.00 65 1013.1
20260507202217 18 90 8.0 12.9 0.00 0.00 0.00 64 1013.1
20260507201259 18 135 1.6 4.8 0.00 0.00 0.00 62 1013.0
20260507200218 18 135 3.2 4.8 0.00 0.00 0.00 61 1012.9
20260507195217 18 90 6.4 11.3 0.00 0.00 0.00 58 1012.7
20260507194239 18 113 3.2 6.4 0.00 0.00 0.00 57 1012.6
20260507193217 18 113 1.6 3.2 0.00 0.00 0.00 55 1012.5
20260507192216 18 113 1.6 4.8 0.00 0.00 0.00 53 1012.4
20260507191217 19 158 3.2 8.0 0.00 0.00 0.00 52 1012.4
20260507190216 19 135 3.2 4.8 0.00 0.00 0.00 50 1012.4
20260507185338 19 135 1.6 3.2 0.00 0.00 0.00 47 1012.3
20260507184216 20 135 1.6 3.2 0.00 0.00 0.00 49 1012.2
20260507183216 20 158 4.8 8.0 0.00 0.00 0.00 48 1012.2
20260507182216 20 135 1.6 4.8 0.00 0.00 0.00 46 1012.1
20260507181216 21 203 1.6 3.2 0.00 0.00 0.00 43 1012.2
20260507180216 21 158 3.2 8.0 0.00 0.00 0.00 40 1012.0
20260507175216 21 90 4.8 9.7 0.00 0.00 0.00 40 1011.9
20260507174221 21 113 6.4 11.3 0.00 0.00 0.00 39 1011.7
20260507173217 22 113 4.8 11.3 0.00 0.00 0.00 37 1011.8
20260507172216 22 90 6.4 11.3 0.00 0.00 0.00 37 1011.7
20260507171237 22 68 8.0 16.1 0.00 0.00 0.00 36 1011.8
20260507170217 22 158 4.8 9.7 0.00 0.00 0.00 37 1011.7
20260507165217 22 113 6.4 11.3 0.00 0.00 0.00 35 1011.6
20260507164217 23 0.0 1.6 0.00 0.00 0.00 36 1011.7
20260507163216 22 180 4.8 8.0 0.00 0.00 0.00 35 1011.5
20260507162216 22 113 3.2 9.7 0.00 0.00 0.00 37 1011.6
20260507161216 22 158 11.3 17.7 0.00 0.00 0.00 42 1011.7
20260507160216 22 158 11.3 17.7 0.00 0.00 0.00 50 1011.8
20260507155216 22 90 3.2 9.7 0.00 0.00 0.00 54 1011.7
20260507154236 22 158 11.3 17.7 0.00 0.00 0.00 57 1011.8
20260507153216 22 158 9.7 14.5 0.00 0.00 0.00 59 1011.8
20260507152216 22 158 8.0 12.9 0.00 0.00 0.00 61 1011.9
20260507151216 22 158 16.1 20.9 0.00 0.00 0.00 62 1011.9
20260507150216 21 158 6.4 12.9 0.00 0.00 0.00 61 1011.9
20260507145216 22 113 11.3 22.5 0.00 0.00 0.00 64 1011.9
20260507144216 22 158 8.0 12.9 0.00 0.00 0.00 62 1011.9
20260507143216 22 158 11.3 17.7 0.00 0.00 0.00 63 1012.0
20260507142216 21 135 8.0 16.1 0.00 0.00 0.00 63 1012.1
20260507141216 21 113 6.4 12.9 0.00 0.00 0.00 61 1012.3
20260507140216 22 68 9.7 16.1 0.00 0.00 0.00 62 1012.3
20260507135216 21 158 9.7 17.7 0.00 0.00 0.00 64 1012.4
20260507134215 21 113 11.3 24.1 0.00 0.00 0.00 65 1012.6
20260507133217 20 90 11.3 16.1 0.00 0.00 0.00 67 1012.7
20260507132216 20 158 6.4 11.3 0.00 0.00 0.00 70 1012.9
20260507131215 20 90 14.5 22.5 0.00 0.00 0.00 70 1012.8
20260507130217 20 90 8.0 16.1 0.00 0.00 0.00 71 1012.9
20260507125215 20 180 8.0 16.1 0.00 0.00 0.00 71 1013.0
20260507124215 20 113 9.7 14.5 0.00 0.00 0.00 70 1013.1
20260507123215 20 158 11.3 17.7 0.00 0.00 0.00 70 1013.1
20260507122216 20 158 17.7 22.5 0.00 0.00 0.00 70 1013.2
20260507121215 20 113 6.4 11.3 0.00 0.00 0.00 71 1013.2
20260507120215 20 90 14.5 30.6 0.00 0.00 0.00 69 1013.2
20260507115215 21 90 12.9 20.9 0.00 0.00 0.00 70 1013.3
20260507114218 20 90 11.3 17.7 0.00 0.00 0.00 70 1013.4
20260507113217 21 158 14.5 22.5 0.00 0.00 0.00 69 1013.3
20260507112217 21 113 11.3 17.7 0.00 0.00 0.00 64 1013.4
20260507111237 21 158 9.7 16.1 0.00 0.00 0.00 65 1013.3
20260507110218 21 180 8.0 16.1 0.00 0.00 0.00 67 1013.2
20260507105217 21 158 6.4 11.3 0.00 0.00 0.00 64 1013.2
20260507104238 20 113 8.0 16.1 0.00 0.00 0.00 63 1012.9
20260507103217 21 158 4.8 9.7 0.00 0.00 0.00 67 1013.0
20260507102217 21 90 11.3 16.1 0.00 0.00 0.00 68 1013.0
20260507101217 20 113 6.4 11.3 0.00 0.00 0.00 69 1012.8